Regional Weather Roundup
Issued by NWS

Home | Current Version | Previous Version | Text Only | Print | Product List | Glossary Off
Versions: 1 2 3 4 5 6 7 8 9 10 11 12 13 14 15 16 17 18 19 20 21 22 23 24 25 26 27 28 29

000
ASUS45 KCYS 300310
RWRWY

WYOMING REGIONAL WEATHER ROUNDUP
NATIONAL WEATHER SERVICE CHEYENNE WY
900 PM MDT WED OCT 29 2014

NOTE:  "FAIR" INDICATES FEW OR NO CLOUDS BELOW 12,000 FEET
WITH NO SIGNIFICANT WEATHER AND/OR OBSTRUCTIONS TO VISIBILITY.

WYZ001-300400-
YELLOWSTONE NATIONAL PARK

CITY           SKY/WX    TMP DP  RH WIND       PRES   REMARKS
LK YELLOWSTONE   N/A     31  26  82 W5        30.32  WCI  26
W YELLOWSTONE  NOT AVBL

$$
WYZ002>013-054>058-071-098>099-300400-
NORTHERN WYOMING

CITY           SKY/WX    TMP DP  RH WIND       PRES   REMARKS
JACKSON        MOCLDY    39  30  70 N8        30.29S WCI  34
CODY           PTCLDY    46  21  36 S5        30.20
GREYBULL       PTCLDY    50  23  34 NW8       30.16R
WORLAND        CLEAR     51  22  31 N6        30.16R
SHERIDAN       CLEAR     43  25  49 W8        30.16R
BUFFALO        CLEAR     42  23  46 SW5       30.18R
GILLETTE       PTCLDY    38  24  57 W12       30.13R WCI  30
HULETT         FAIR      45  30  57 SW5       30.12
NEWCASTLE      FAIR      46  28  49 N8        30.12

$$
WYZ014>020-022>026-101>103-300400-
CENTRAL WYOMING

CITY           SKY/WX    TMP DP  RH WIND       PRES   REMARKS
BIG PINEY      CLEAR     34  23  64 NW8       30.32R WCI  27
PINEDALE       PTCLDY    32  27  80 NW5       30.32  WCI  27
DUBOIS         FAIR      36  28  75 NW16      30.27R WCI  26
LANDER         PTCLDY    44  27  51 W12       30.22R
RIVERTON       MOCLDY    49  28  44 NW14      30.22R
CASPER         CLEAR     37  19  48 W10       30.19R WCI  30
DOUGLAS        CLOUDY    50  22  33 NW10G17   30.18R

$$
WYZ021-027>030-104>119-300400-
SOUTHERN WYOMING

CITY           SKY/WX    TMP DP  RH WIND       PRES   REMARKS
EVANSTON       PTCLDY    45  24  43 W13       30.34S
KEMMERER       CLEAR     41  30  65 CALM      30.33S
FORT BRIDGER   FAIR      45  28  51 W9        30.36R
ROCK SPRINGS   CLEAR     43  27  53 W7        30.30S
RAWLINS        MOCLDY    46  23  40 W12       30.28R
SARATOGA       FAIR      45  27  49 W6        30.29R
LARAMIE        CLEAR     43  23  45 NW13      30.25R
CHEYENNE       PTCLDY    50  24  36 NW9       30.20R
TORRINGTON     PTCLDY    45  24  43 W6        30.12R
PINE BLUFFS    FAIR      41  28  60 N10       30.17R

$$



USA.gov is the U.S. government's official web portal to all federal, state and local government web resources and services.